| time (UTC) | temp F | wind direction | speed MPH | gust MPH | rain 1hr in | rain 24hr in | rain mn in | humidity % | barometer mb |
| 20260902090036 | 63 | 0.0 | 1.0 | 0.00 | 0.36 | 0.00 | 83 | 1019.7 | |
| 20260902083016 | 63 | 0.0 | 1.0 | 0.00 | 0.36 | 0.00 | 83 | 1019.5 | |
| 20260902080017 | 62 | 0.0 | 1.0 | 0.00 | 0.41 | 0.00 | 83 | 1019.4 | |
| 20260902073017 | 63 | 0.0 | 1.0 | 0.00 | 0.41 | 0.00 | 83 | 1019.3 | |
| 20260902070017 | 63 | 0.0 | 1.0 | 0.00 | 0.41 | 0.00 | 83 | 1019.5 | |
| 20260902063015 | 63 | 0.0 | 2.0 | 0.00 | 0.41 | 0.00 | 83 | 1019.6 | |
| 20260902060015 | 63 | 0.0 | 1.0 | 0.00 | 0.41 | 0.00 | 82 | 1019.5 | |
| 20260902053016 | 64 | 0.0 | 1.0 | 0.00 | 0.43 | 0.00 | 82 | 1019.3 | |
| 20260902050015 | 64 | 0.0 | 1.0 | 0.00 | 0.43 | 0.00 | 82 | 1019.4 | |
| 20260902043015 | 64 | 0.0 | 2.0 | 0.00 | 0.45 | 0.00 | 82 | 1019.0 | |
| 20260902040015 | 64 | 0.0 | 2.0 | 0.00 | 0.46 | 0.46 | 82 | 1018.6 | |
| 20260902033016 | 64 | 0.0 | 2.0 | 0.00 | 0.47 | 0.46 | 82 | 1018.2 | |
| 20260902030016 | 64 | 0.0 | 2.0 | 0.00 | 0.47 | 0.46 | 82 | 1018.0 | |
| 20260902023023 | 65 | 0.0 | 3.0 | 0.00 | 0.48 | 0.46 | 81 | 1017.7 | |
| 20260902020016 | 66 | 0.0 | 0.0 | 0.00 | 0.48 | 0.46 | 82 | 1017.6 | |
| 20260902013019 | 66 | 0.0 | 0.0 | 0.00 | 0.48 | 0.46 | 82 | 1017.3 | |
| 20260902010016 | 66 | 0.0 | 1.0 | 0.00 | 0.48 | 0.46 | 81 | 1016.9 | |
| 20260902003016 | 67 | 0.0 | 5.0 | 0.00 | 0.49 | 0.46 | 81 | 1016.4 | |
| 20260902000015 | 69 | 90 | 1.0 | 5.0 | 0.00 | 0.49 | 0.46 | 82 | 1015.9 |
| 20260901233017 | 70 | 68 | 1.0 | 7.0 | 0.13 | 0.49 | 0.46 | 82 | 1015.7 |
| 20260901230015 | 72 | 68 | 1.0 | 8.0 | 0.13 | 0.49 | 0.46 | 81 | 1015.7 |
| 20260901223018 | 73 | 68 | 1.0 | 2.0 | 0.01 | 0.36 | 0.33 | 82 | 1015.0 |
| 20260901220020 | 74 | 23 | 1.0 | 4.0 | 0.01 | 0.36 | 0.33 | 82 | 1014.8 |
| 20260901213015 | 75 | 0 | 1.0 | 3.0 | 0.00 | 0.35 | 0.32 | 81 | 1014.5 |
| 20260901210035 | 76 | 0.0 | 0.0 | 0.00 | 0.35 | 0.32 | 80 | 1014.4 | |
| 20260901203017 | 77 | 0.0 | 0.0 | 0.00 | 0.35 | 0.32 | 77 | 1014.2 | |
| 20260901200015 | 79 | 0.0 | 0.0 | 0.00 | 0.35 | 0.32 | 74 | 1014.0 | |
| 20260901193035 | 80 | 0.0 | 1.0 | 0.00 | 0.36 | 0.32 | 72 | 1014.1 | |
| 20260901190017 | 81 | 0.0 | 2.0 | 0.00 | 0.36 | 0.32 | 72 | 1014.1 | |
| 20260901183017 | 81 | 0.0 | 2.0 | 0.00 | 0.36 | 0.32 | 72 | 1014.3 | |
| 20260901180022 | 79 | 225 | 1.0 | 5.0 | 0.00 | 0.36 | 0.32 | 75 | 1014.3 |
| 20260901173017 | 78 | 0.0 | 4.0 | 0.00 | 0.36 | 0.32 | 76 | 1014.1 | |
| 20260901170022 | 76 | 0.0 | 4.0 | 0.00 | 0.36 | 0.32 | 80 | 1014.3 | |
| 20260901163017 | 75 | 0.0 | 2.0 | 0.00 | 0.36 | 0.32 | 82 | 1014.6 | |
| 20260901160017 | 73 | 0.0 | 2.0 | 0.00 | 0.36 | 0.32 | 84 | 1015.1 | |
| 20260901153036 | 72 | 0.0 | 3.0 | 0.00 | 0.36 | 0.32 | 84 | 1015.6 | |
| 20260901150016 | 71 | 0.0 | 2.0 | 0.00 | 0.36 | 0.32 | 84 | 1015.6 | |
| 20260901143016 | 71 | 0.0 | 1.0 | 0.03 | 0.36 | 0.32 | 84 | 1015.4 | |
| 20260901140036 | 70 | 0.0 | 1.0 | 0.09 | 0.36 | 0.32 | 84 | 1015.8 | |
| 20260901133016 | 70 | 0.0 | 0.0 | 0.12 | 0.33 | 0.29 | 84 | 1015.8 | |
| 20260901130021 | 69 | 0.0 | 0.0 | 0.11 | 0.27 | 0.23 | 84 | 1016.1 | |
| 20260901123016 | 69 | 0.0 | 2.0 | 0.05 | 0.21 | 0.17 | 84 | 1016.0 | |
| 20260901120016 | 69 | 0.0 | 2.0 | 0.01 | 0.16 | 0.12 | 84 | 1015.8 | |
| 20260901113037 | 69 | 0.0 | 1.0 | 0.02 | 0.16 | 0.12 | 84 | 1015.6 | |
| 20260901110016 | 68 | 0.0 | 1.0 | 0.01 | 0.15 | 0.11 | 84 | 1015.8 | |
| 20260901103016 | 68 | 0.0 | 0.0 | 0.00 | 0.14 | 0.10 | 84 | 1015.6 | |
| 20260901100016 | 68 | 0.0 | 1.0 | 0.00 | 0.14 | 0.10 | 84 | 1015.7 | |
| 20260901093021 | 68 | 0.0 | 1.0 | 0.00 | 0.14 | 0.10 | 84 | 1015.7 |